Hourly Data Report for May 09, 2021

WINNIPEG THE FORKS
MANITOBA
Current Station Operator: ECCC - MSC

49°53'18.008" N
97°07'46.007" W
230.00 m
5023262
71579
XWN

Download Data

Hourly Data (May 2021)
Hourly Data Report for May 9, 2021
TIME
LST
Temp Definition
°C
Dew Point Definition
°C
Rel Hum Definition
%
Precip. Amount Definition
mm

Wind Dir Definition
10's deg

Wind Spd Definition
km/h
Visibility Definition
km
Stn Press Definition
kPa
Hmdx Definition


Wind Chill Definition


Weather Definition


00:00 3.7 -3.2 61 0.0 35 5   99.45     LegendNANA
01:00 3.6 -3.5 60 0.0 1 7   99.46     LegendNANA
02:00 3.2 -5.7 52 0.0 3 6   99.45     LegendNANA
03:00 2.1 -6.1 54 0.0 1 7   99.47     LegendNANA
04:00 1.7 -6.2 56 0.0 3 4   99.51     LegendNANA
05:00 0.8 -6.0 60 0.0 4 2   99.54     LegendNANA
06:00 1.7 -5.6 58 0.0 2 3   99.60     LegendNANA
07:00 3.8 -4.7 54 0.0 1 4   99.67     LegendNANA
08:00 4.9 -3.9 53 0.0 36 7   99.72     LegendNANA
09:00 7.0 -3.6 47 0.0 36 6   99.73     LegendNANA
10:00 8.3 -3.6 43 0.0 34 8   99.71     LegendNANA
11:00 9.1 -4.3 39 0.0 34 14   99.69     LegendNANA
12:00 9.5 -4.6 36 0.0 2 13   99.66     LegendNANA
13:00 9.7 -5.6 34 0.0 3 12   99.62     LegendNANA
14:00 9.3 -6.8 31 0.0 2 15   99.60     LegendNANA
15:00 9.5 -7.4 30 0.0 1 15   99.60     LegendNANA
16:00 9.6 -9.0 26 0.0 1 14   99.57     LegendNANA
17:00 9.4 -4.9 36 0.0 36 16   99.58     LegendNANA
18:00 8.5 -4.2 40 0.0 1 14   99.59     LegendNANA
19:00 7.1 -4.3 44 0.0 1 13   99.64     LegendNANA
20:00 5.8 -4.0 49 0.0 36 11   99.69     LegendNANA
21:00 4.6 -2.4 60 0.0 1 7   99.77     LegendNANA
22:00 3.8 -2.4 64 0.0 35 5   99.81     LegendNANA
23:00 2.7 -3.4 64 0.0 36 4   99.83     LegendNANA

Notes on Data Quality.

Legend

  • E = Estimated
  • M = Missing
  • NA = Not Available*
  • [empty] = Indicates an unobserved value
Date modified: